[[{"header":{"parameterUnit":"m.s-1","parameterCategory":1,"la1":30.2992,"la2":30.254,"lo1":-89.0895,"lo2":-89.0443,"dy":0.0025,"dx":0.0025,"nx":19,"ny":19,"refTime":"2026-03-13T09:00:00:Z","depth":0,"parameterNumber":2,"parameterNumberName":"U-component_of_WINDS"},"data":[0,0,0,-2.9648,-2.9654,-2.9915,-2.9915,-3.0274,-3.0278,0,0,0,0,0,0,0,0,0,0,0,-2.9585,-2.9588,-2.9648,-2.9655,-2.9914,-2.9916,-3.0273,-3.0278,0,0,0,0,0,0,0,0,0,0,0,-2.9584,-2.9587,-2.9591,-2.9656,-2.9914,-2.9916,-3.0273,-3.0068,0,0,0,0,0,0,0,0,0,0,-2.9811,-2.9766,-2.9587,-2.9591,-2.9657,-2.9914,-2.9916,-3.0057,-3.008,-3.0167,0,-3.0246,0,-3.0267,-3.0303,-3.0304,0,0,0,-2.9645,-2.9747,-2.9804,-2.9592,-2.966,-2.9914,-2.9794,-3.007,-3.0096,-3.0198,-3.0251,-3.0263,-3.0273,-3.0305,-3.0307,-3.0834,-3.0837,0,0,-2.963,-2.964,-2.9786,-2.9821,-2.9781,-2.9786,-2.9803,-3.0085,-3.0145,-3.0252,-3.0271,-3.0279,-3.0308,-3.0311,-3.0831,-3.0835,0,0,0,-2.9596,-2.9631,-2.968,-2.9807,-2.9852,-2.9794,-2.9813,-3.0132,-3.0147,-3.0275,-3.0283,-3.031,-3.0315,-3.0828,-3.0833,-3.0987,0,0,0,-2.9587,-2.961,-2.9674,-2.9683,-2.9847,-2.9995,-2.9854,-3.0128,-3.0159,-3.0282,-3.031,-3.0319,-3.0825,-3.0831,-3.0976,-3.106,0,0,0,-2.9564,-2.9607,-2.965,-2.9683,-2.9795,-2.999,-3.0021,-3.0134,-3.0165,-3.0305,-3.032,-3.0823,-3.083,-3.0966,-3.1043,-3.1202,0,0,0,-2.9542,-2.9785,-2.9652,-2.9926,-2.9793,-3.0083,-3.0019,-3.0235,-3.0373,-3.0312,-3.0825,-3.0832,-3.0963,-3.1033,-3.1191,-3.1339,-3.14,0,0,-2.9854,-2.9822,-2.9983,-2.9872,-3.0187,-3.0042,-3.0381,-3.0499,-3.0504,-3.0724,-3.0737,-3.098,-3.1042,-3.12,-3.1739,-3.1788,0,0,0,-3.0085,-3.02,-3.0281,-3.0412,-3.0506,-3.0594,-3.0658,-3.0702,-3.0888,-3.0618,-3.1078,-3.1116,-3.1208,-3.1278,-3.132,-3.1399,-3.0864,-3.0864,-3.0863,-3.0542,-3.0533,-3.0798,-3.082,-3.0948,-3.101,-3.1113,-3.1183,-3.1138,-3.1247,-3.1313,-3.1641,-3.1723,-3.1754,-3.1837,-3.1388,-3.1389,-3.1389,-3.139,-3.0999,-3.1162,-3.1093,-3.1326,-3.1315,-3.1511,-3.1581,-3.1542,-3.1724,-3.159,-3.1671,-3.1528,-3.1809,-3.188,-3.1401,-3.1399,-3.1398,-3.1397,-3.1396,-3.13,-3.1376,-3.1422,-3.1609,-3.1755,-3.1769,-3.1946,-3.193,-3.1916,-3.1996,-3.2065,-3.2062,-3.2059,-3.2029,-3.203,-3.2031,-3.2032,-3.2033,-3.2034,-3.1594,-3.1641,-3.1792,-3.191,-3.1991,-3.2096,-3.216,-3.224,-3.2325,-3.23,-3.23,-3.2246,-3.1836,-3.1735,-3.2052,-3.2048,-3.2046,-3.2045,-3.2043,-3.2065,-3.1955,-3.2188,-3.2269,-3.2406,-3.2552,-3.2527,-3.2692,-3.2755,-3.2843,-3.277,-3.247,-3.2438,-3.2404,-3.2321,-3.277,-3.277,-3.277,-3.277,-3.232,-3.2301,-3.2534,-3.2665,-3.2791,-3.2792,-3.3056,-3.3108,-3.3144,-3.3183,-3.3115,-3.3002,-3.2968,-3.2956,-3.2911,-3.2833,-3.3403,-3.3403,-3.3404,-3.261,-3.2602,-3.283,-3.2861,-3.2967,-3.3058,-3.3307,-3.3461,-3.3479,-3.3429,-3.3214,-3.3187,-3.3004,-3.2944,-3.2893,-3.2823,-3.2679,0,0]},{"header":{"parameterUnit":"m.s-1","parameterCategory":1,"la1":30.2992,"la2":30.254,"lo1":-89.0895,"lo2":-89.0443,"dy":0.0025,"dx":0.0025,"nx":19,"ny":19,"refTime":"2026-03-13T09:00:00:Z","depth":0,"parameterNumber":3,"parameterNumberName":"V-component_of_WINDS"},"data":[0,0,0,-2.3348,-2.335,-2.3459,-2.346,-2.3604,-2.3605,0,0,0,0,0,0,0,0,0,0,0,-2.3319,-2.332,-2.3347,-2.335,-2.3459,-2.346,-2.3603,-2.3605,0,0,0,0,0,0,0,0,0,0,0,-2.3318,-2.3319,-2.3321,-2.3351,-2.3459,-2.346,-2.3603,-2.3519,0,0,0,0,0,0,0,0,0,0,-2.3412,-2.3389,-2.3319,-2.3321,-2.3351,-2.3459,-2.346,-2.3515,-2.3524,-2.3556,0,-2.3586,0,-2.3598,-2.3615,-2.3615,0,0,0,-2.3348,-2.3381,-2.3408,-2.3321,-2.3352,-2.3459,-2.3409,-2.352,-2.3531,-2.3569,-2.3588,-2.3593,-2.36,-2.3616,-2.3617,-2.381,-2.3811,0,0,-2.3342,-2.334,-2.34,-2.3415,-2.3399,-2.3406,-2.3413,-2.3526,-2.3547,-2.3589,-2.3597,-2.3603,-2.3617,-2.3618,-2.3809,-2.381,0,0,0,-2.3326,-2.3336,-2.3359,-2.3409,-2.3428,-2.3409,-2.3417,-2.3542,-2.355,-2.3598,-2.3604,-2.3618,-2.362,-2.3808,-2.381,-2.3858,0,0,0,-2.3322,-2.3327,-2.3357,-2.3357,-2.3426,-2.3487,-2.3431,-2.3542,-2.3555,-2.3604,-2.3618,-2.3621,-2.3807,-2.3809,-2.3855,-2.3882,0,0,0,-2.331,-2.3325,-2.3342,-2.3357,-2.3404,-2.3485,-2.3499,-2.3545,-2.3559,-2.3616,-2.3621,-2.3806,-2.3808,-2.3851,-2.3876,-2.3932,0,0,0,-2.3297,-2.3385,-2.3343,-2.3444,-2.3403,-2.3515,-2.3499,-2.3582,-2.3636,-2.3618,-2.3807,-2.3809,-2.385,-2.3873,-2.3928,-2.3978,-2.3998,0,0,-2.3407,-2.3398,-2.3457,-2.3423,-2.3542,-2.3498,-2.3624,-2.3675,-2.3682,-2.3767,-2.3771,-2.3856,-2.3876,-2.3931,-2.4115,-2.4132,0,0,0,-2.3492,-2.3534,-2.3566,-2.3617,-2.3659,-2.3696,-2.3728,-2.3746,-2.3818,-2.3726,-2.3891,-2.3903,-2.3935,-2.3959,-2.3973,-2.4,-2.382,-2.382,-2.382,-2.3645,-2.3649,-2.3746,-2.3763,-2.3813,-2.3844,-2.3885,-2.3915,-2.3905,-2.3943,-2.3969,-2.408,-2.4108,-2.4118,-2.4147,-2.3995,-2.3996,-2.3996,-2.3996,-2.3806,-2.3866,-2.3849,-2.3937,-2.394,-2.4014,-2.4047,-2.4037,-2.4105,-2.4062,-2.409,-2.4042,-2.4136,-2.4161,-2.4,-2.3999,-2.3999,-2.3998,-2.3998,-2.3907,-2.3936,-2.3957,-2.4031,-2.4087,-2.4101,-2.4167,-2.4167,-2.4168,-2.4196,-2.4222,-2.4221,-2.422,-2.4208,-2.4209,-2.4209,-2.421,-2.421,-2.421,-2.4003,-2.4025,-2.4081,-2.4131,-2.4163,-2.4206,-2.4237,-2.4269,-2.4304,-2.4299,-2.4299,-2.4283,-2.4145,-2.411,-2.4216,-2.4215,-2.4214,-2.4214,-2.4213,-2.4164,-2.4127,-2.4214,-2.4246,-2.4304,-2.4359,-2.4358,-2.4422,-2.4449,-2.4481,-2.4459,-2.4357,-2.4348,-2.4337,-2.4308,-2.4459,-2.4459,-2.4459,-2.4459,-2.4248,-2.4243,-2.4331,-2.4383,-2.4433,-2.4441,-2.4538,-2.4562,-2.4582,-2.4598,-2.4576,-2.4538,-2.4526,-2.4524,-2.4509,-2.4481,-2.4673,-2.4674,-2.4674,-2.4347,-2.4347,-2.443,-2.4449,-2.4493,-2.4531,-2.4622,-2.4681,-2.4696,-2.4682,-2.461,-2.4601,-2.4539,-2.4519,-2.4504,-2.4481,-2.4431,0,0]}]]